Regional Weather Roundup
Issued by NWS

Home | Current Version | Previous Version | Text Only | Print | Product List | Glossary On
Versions: 1 2 3 4 5 6 7 8 9 10 11 12 13 14 15 16 17 18 19 20 21 22 23 24 25 26 27
000
ASUS44 KJAN 292320
RWRMS

MISSISSIPPI HOURLY WEATHER ROUNDUP
NATIONAL WEATHER SERVICE JACKSON MS
600 PM CDT MON AUG 29 2016

NOTE: "FAIR: INDICATES FEW OR NO CLOUDS BELOW 12,000 FEET WITH NO
SIGNIFICANT WEATHER AND/OR OBSTRUCTIONS TO VISIBILITY.

MSZ001>002-007>008-010>013-018>021-025>028-034>036-300000-
NORTHWEST MISSISSIPPI

CITY           SKY/WX    TMP DP  RH WIND       PRES   REMARKS
CLARKSDALE     SUNNY     79  79 100 CALM      30.00F
GREENWOOD      MOSUNNY   93  71  48 NE6       29.98R HX 100
GREENVILLE     CLOUDY    78  72  81 CALM      29.99S
OLIVE BRANCH   PTSUNNY  N/A N/A N/A NE9       30.02S
OXFORD         FAIR      86  68  54 NE3       30.03S
TUNICA         CLOUDY    84  77  79 NE5       30.02S HX  94
$$

MSZ003>006-009-014>017-022>024-029>033-037>039-300000-
NORTHEAST MISSISSIPPI

CITY           SKY/WX    TMP DP  RH WIND       PRES   REMARKS
COLUMBUS AFB   SUNNY     93  74  54 NE9       29.97F HX 102
CORINTH        FAIR      82  72  69 NE8       30.03F
GOLDN TRIANGLE MOSUNNY   91  66  43 E12       29.97F HX  94
TUPELO         SUNNY     91  70  49 NE9       30.00F HX  96
$$

MSZ040-058-300000-
CENTRAL MISSISSIPPI

CITY           SKY/WX    TMP DP  RH WIND       PRES   REMARKS
JACKSON INTL   MOSUNNY   90  71  53 CALM      29.97R HX  96
JACKSON HAWKNS MOSUNNY   88  71  57 S5        29.98R HX  94
MERIDIAN KEY   MOSUNNY   93  69  45 E9        29.97S HX  98
MERIDIAN NAS   MOSUNNY   92  69  47 E6        29.98S HX  97
$$

MSZ059>079-300000-
SOUTH MISSISSIPPI

CITY           SKY/WX    TMP DP  RH WIND       PRES   REMARKS
BROOKHAVEN     FAIR     N/A N/A N/A CALM      29.98S
HATTIESBURG    SUNNY     91  71  51 E7        29.95S HX  97
MCCOMB         CLOUDY    88  74  63 CALM      29.95F HX  96
NATCHEZ        MOSUNNY   86  75  70 CALM      29.95F HX  95
PINE BELT      MOSUNNY   90  70  51 E9        29.98S HX  95
$$

MSZ080>082-300000-
COASTAL MISSISSIPPI

CITY           SKY/WX    TMP DP  RH WIND       PRES   REMARKS
BAY ST LOUIS   MOSUNNY   84  73  70 SE5       29.94F HX  91
BILOXI         PTSUNNY   87  77  71 SE7       29.93S HX  98
PASCAGOULA     MOSUNNY   87  75  67 S6        29.94R HX  96
GULFPORT       MOSUNNY   86  77  74 SE10      29.93S HX  97
$$

LAZ007>009-015>016-023>026-300000-
NORTHEAST LOUISIANA

CITY           SKY/WX    TMP DP  RH WIND       PRES   REMARKS
BASTROP        MOCLDY    90  76  63 CALM      29.97S HX 101
TALLULAH/VBURG MOSUNNY   92  73  53 E7        29.95S HX 100
$$




USA.gov is the U.S. government's official web portal to all federal, state and local government web resources and services.